EW7698 Weather Reports


time (UTC)temp
F
wind
direction
speed
knots
gust
knots
rain 1hr
in
rain 24hr
in
rain mn
in
humidity
%
barometer
mb
20260506200838 81 234 1.7 7.8 0.00 0.00 0.00 74 1014.7
20260506200325 81 105 2.6 7.8 0.00 0.00 0.00 74 1014.6
20260506200049 81 222 0.9 7.8 0.00 0.00 0.00 74 1014.7
20260506200010 81 214 0.9 7.8 0.00 0.00 0.00 74 1015.1
20260506195900 81 217 1.7 7.8 0.00 0.00 0.00 74 1014.7
20260506195347 81 349 1.7 7.0 0.00 0.00 0.00 74 1014.7
20260506194833 81 115 0.9 11.3 0.00 0.00 0.00 74 1014.7
20260506194545 80 234 3.5 11.3 0.00 0.00 0.00 73 1014.6
20260506194511 81 83 3.5 11.3 0.00 0.00 0.00 73 1015.0
20260506194341 81 246 3.5 11.3 0.00 0.00 0.00 73 1014.6
20260506193844 82 177 2.6 7.8 0.00 0.00 0.00 73 1014.7
20260506193347 82 293 0.9 4.3 0.00 0.00 0.00 74 1014.8
20260506193025 81 61 0.9 5.2 0.00 0.00 0.00 73 1015.3
20260506193013 81 66 0.9 6.1 0.00 0.00 0.00 73 1014.9
20260506192859 82 98 1.7 6.1 0.00 0.00 0.00 74 1014.9
20260506192324 82 190 0.9 6.1 0.00 0.00 0.00 73 1015.0
20260506191832 82 50 1.7 6.1 0.00 0.00 0.00 73 1015.0
20260506191534 82 59 0.9 7.0 0.00 0.00 0.00 73 1015.0
20260506191527 82 41 0.9 7.8 0.00 0.00 0.00 72 1015.4
20260506191339 82 179 1.7 7.0 0.00 0.00 0.00 73 1015.1
20260506190827 82 70 0.9 7.0 0.00 0.00 0.00 73 1015.2
20260506190401 82 67 0.9 7.0 0.00 0.00 0.00 72 1015.2
20260506190011 82 55 1.7 7.0 0.00 0.00 0.00 71 1015.6
20260506190004 82 60 1.7 7.0 0.00 0.00 0.00 72 1015.2
20260506185829 82 75 1.7 7.0 0.00 0.00 0.00 72 1015.3
20260506185333 82 185 1.7 8.7 0.00 0.00 0.00 73 1015.3
20260506184821 82 251 0.0 8.7 0.00 0.00 0.00 74 1015.4
20260506184550 81 205 3.5 12.2 0.00 0.00 0.00 73 1015.4
20260506184511 81 233 3.5 12.2 0.00 0.00 0.00 72 1015.8
20260506184328 82 136 2.6 12.2 0.00 0.00 0.00 74 1015.6
20260506183836 81 65 3.5 12.2 0.00 0.00 0.00 73 1015.5
20260506183321 81 228 3.5 10.4 0.00 0.00 0.00 73 1015.5
20260506183032 81 227 2.6 10.4 0.00 0.00 0.00 72 1015.6
20260506183017 81 236 2.6 10.4 0.00 0.00 0.00 72 1015.9
20260506182855 82 248 2.6 10.4 0.00 0.00 0.00 72 1015.5
20260506182339 82 142 0.9 7.8 0.00 0.00 0.00 72 1015.6
20260506181825 82 44 0.0 8.7 0.00 0.00 0.00 75 1015.6
20260506181601 81 257 1.7 8.7 0.00 0.00 0.00 74 1015.6
20260506181534 81 193 0.9 8.7 0.00 0.00 0.00 73 1016.0
20260506181332 81 38 2.6 8.7 0.00 0.00 0.00 73 1015.6
20260506180838 81 267 0.9 6.1 0.00 0.00 0.00 74 1015.7
20260506180325 81 232 1.7 8.7 0.00 0.00 0.00 74 1015.7
20260506180058 80 339 1.7 10.4 0.00 0.00 0.00 75 1015.8
20260506180027 80 265 1.7 10.4 0.00 0.00 0.00 73 1016.2
20260506175834 80 240 1.7 10.4 0.00 0.00 0.00 74 1016.0
20260506175340 81 111 3.5 10.4 0.00 0.00 0.00 74 1015.9
20260506174827 80 223 2.6 10.4 0.00 0.00 0.00 74 1016.0
20260506174528 80 266 0.9 7.0 0.00 0.00 0.00 75 1016.1
20260506174508 80 286 1.7 7.0 0.00 0.00 0.00 74 1016.5
20260506174333 80 286 0.9 7.0 0.00 0.00 0.00 75 1016.2
20260506173821 80 240 2.6 7.0 0.00 0.00 0.00 74 1016.3
20260506173328 80 316 1.7 7.8 0.00 0.00 0.00 75 1016.4
20260506173017 79 26 0.9 7.8 0.00 0.00 0.00 76 1016.4
20260506173012 79 6 0.9 8.7 0.00 0.00 0.00 75 1016.8
20260506172834 79 242 1.7 8.7 0.00 0.00 0.00 76 1016.4
20260506172324 79 112 1.7 8.7 0.00 0.00 0.00 76 1016.6
20260506171846 79 62 2.6 8.7 0.00 0.00 0.00 75 1016.6
20260506171545 78 238 0.0 7.8 0.00 0.00 0.00 76 1016.6
20260506171519 78 210 0.0 7.8 0.00 0.00 0.00 75 1017.0
20260506171357 79 63 1.7 7.8 0.00 0.00 0.00 76 1016.5
20260506170822 79 103 0.9 7.0 0.00 0.00 0.00 77 1016.6
20260506170329 78 236 0.9 6.1 0.00 0.00 0.00 77 1016.5
20260506170008 78 220 0.0 7.0 0.00 0.00 0.00 77 1016.5
20260506170004 78 216 0.0 7.0 0.00 0.00 0.00 76 1017.0
20260506165822 78 244 1.7 7.0 0.00 0.00 0.00 77 1016.6
20260506165329 78 236 1.7 7.0 0.00 0.00 0.00 76 1016.7
20260506164836 78 248 0.9 10.4 0.00 0.00 0.00 76 1016.9
20260506164551 78 40 1.7 10.4 0.00 0.00 0.00 76 1016.7
20260506164524 78 91 1.7 10.4 0.00 0.00 0.00 76 1017.1
20260506164340 78 81 0.9 10.4 0.00 0.00 0.00 76 1016.7
20260506163827 78 193 0.9 7.8 0.00 0.00 0.00 76 1016.7
20260506163334 79 247 2.6 7.8 0.00 0.00 0.00 75 1016.8
20260506163039 78 262 0.0 7.8 0.00 0.00 0.00 76 1016.7
20260506163013 78 224 0.0 8.7 0.00 0.00 0.00 75 1017.1
20260506162822 79 280 0.0 7.8 0.00 0.00 0.00 75 1016.7
20260506162328 79 236 2.6 7.8 0.00 0.00 0.00 75 1016.7
20260506161835 79 122 1.7 10.4 0.00 0.00 0.00 75 1016.8
20260506161523 79 67 1.7 10.4 0.00 0.00 0.00 75 1016.9
20260506161519 79 159 1.7 10.4 0.00 0.00 0.00 74 1017.4
20260506161322 79 234 1.7 10.4 0.00 0.00 0.00 74 1017.0
20260506160830 79 74 0.9 7.0 0.00 0.00 0.00 75 1016.9
20260506160334 79 248 0.9 7.0 0.00 0.00 0.00 74 1016.9
20260506160013 79 62 0.0 6.1 0.00 0.00 0.00 73 1016.8
20260506160004 79 70 0.0 6.1 0.00 0.00 0.00 73 1017.3
20260506155841 79 275 1.7 7.0 0.00 0.00 0.00 73 1016.9
20260506155328 79 238 0.0 8.7 0.00 0.00 0.00 73 1017.0
20260506154835 80 311 2.6 7.8 0.00 0.00 0.00 72 1017.1
20260506154555 79 94 2.6 7.8 0.00 0.00 0.00 72 1017.0
20260506154503 80 49 1.7 7.8 0.00 0.00 0.00 72 1017.5
20260506154323 80 151 2.6 7.8 0.00 0.00 0.00 72 1017.0
20260506153856 80 121 0.9 7.0 0.00 0.00 0.00 73 1017.0
20260506153321 80 250 1.7 12.2 0.00 0.00 0.00 74 1017.0
20260506153023 79 277 0.9 12.2 0.00 0.00 0.00 74 1016.9
20260506153007 79 267 0.9 12.2 0.00 0.00 0.00 73 1017.5
20260506152826 79 197 1.7 12.2 0.00 0.00 0.00 74 1017.0
20260506152327 79 44 1.7 5.2 0.00 0.00 0.00 74 1017.1
20260506151834 79 128 0.9 7.8 0.00 0.00 0.00 74 1017.1
20260506151516 78 226 0.0 7.8 0.00 0.00 0.00 73 1017.8
20260506151509 78 237 0.0 7.8 0.00 0.00 0.00 74 1017.1
20260506151342 79 47 0.9 7.8 0.00 0.00 0.00 73 1017.3
20260506150849 79 119 0.9 9.6 0.00 0.00 0.00 74 1017.1
20260506150336 79 252 0.9 9.6 0.00 0.00 0.00 74 1017.1
20260506150028 78 218 0.9 5.2 0.00 0.00 0.00 74 1017.0
20260506150018 78 219 0.9 5.2 0.00 0.00 0.00 73 1017.6
20260506145823 79 148 1.7 5.2 0.00 0.00 0.00 73 1017.0
20260506145330 79 74 0.9 6.1 0.00 0.00 0.00 73 1016.9
20260506144837 79 247 0.9 7.8 0.00 0.00 0.00 73 1016.9
20260506144520 79 216 1.7 7.8 0.00 0.00 0.00 73 1016.9
20260506144506 79 188 0.9 7.8 0.00 0.00 0.00 73 1017.4
20260506144325 79 274 1.7 7.0 0.00 0.00 0.00 73 1016.9
20260506143832 80 204 1.7 7.8 0.00 0.00 0.00 74 1016.7
20260506143339 80 200 0.9 7.8 0.00 0.00 0.00 74 1016.7
20260506143100 79 5 2.6 7.8 0.00 0.00 0.00 74 1016.6
20260506143005 79 46 1.7 7.8 0.00 0.00 0.00 74 1016.6
20260506142828 80 238 1.7 7.8 0.00 0.00 0.00 74 1016.7
20260506142333 80 117 1.7 7.8 0.00 0.00 0.00 75 1016.7
20260506141839 79 215 1.7 7.8 0.00 0.00 0.00 77 1016.7
20260506141600 78 73 0.0 5.2 0.00 0.00 0.00 76 1016.6
20260506141523 78 180 0.0 10.4 0.00 0.00 0.00 76 1017.2
20260506141344 79 271 0.9 10.4 0.00 0.00 0.00 76 1016.7
20260506140854 78 335 1.7 10.4 0.00 0.00 0.00 77 1016.6
20260506140338 78 208 1.7 6.1 0.00 0.00 0.00 78 1016.7
20260506140015 77 82 0.0 4.3 0.00 0.00 0.00 78 1017.1
20260506140005 77 84 0.0 4.3 0.00 0.00 0.00 78 1016.6
20260506135823 78 263 0.0 4.3 0.00 0.00 0.00 79 1016.5
20260506135328 77 30 0.0 4.3 0.00 0.00 0.00 79 1016.5
20260506134900 77 177 0.9 3.5 0.00 0.00 0.00 79 1016.5
20260506134540 76 144 0.0 3.5 0.00 0.00 0.00 79 1016.3
20260506134520 76 354 0.0 9.6 0.00 0.00 0.00 78 1016.7
20260506134326 77 348 0.0 9.6 0.00 0.00 0.00 79 1016.3
20260506133833 77 42 0.9 9.6 0.00 0.00 0.00 78 1016.3
20260506133340 77 238 0.9 5.2 0.00 0.00 0.00 78 1016.3
20260506133046 76 233 0.9 5.2 0.00 0.00 0.00 78 1016.2
20260506133004 76 219 0.9 6.1 0.00 0.00 0.00 78 1016.7
20260506132828 77 87 0.0 6.1 0.00 0.00 0.00 78 1016.2
20260506132335 77 97 1.7 6.1 0.00 0.00 0.00 78 1016.1
20260506131821 77 81 0.0 6.1 0.00 0.00 0.00 78 1016.0
20260506131549 76 53 0.9 6.1 0.00 0.00 0.00 78 1016.1
20260506131511 76 233 0.0 5.2 0.00 0.00 0.00 78 1016.5
20260506131329 77 198 0.9 5.2 0.00 0.00 0.00 79 1016.2
20260506130900 77 51 0.0 5.2 0.00 0.00 0.00 79 1016.2
20260506130326 76 219 1.7 5.2 0.00 0.00 0.00 80 1016.2
20260506130022 76 294 0.0 7.8 0.00 0.00 0.00 80 1016.1
20260506130014 76 298 0.0 7.8 0.00 0.00 0.00 79 1016.6
20260506125832 76 233 0.9 7.8 0.00 0.00 0.00 80 1016.2
20260506125336 76 5 0.9 7.0 0.00 0.00 0.00 80 1016.3
20260506124839 75 218 0.0 5.2 0.00 0.00 0.00 82 1016.3
20260506124514 74 59 0.9 5.2 0.00 0.00 0.00 82 1016.2
20260506124326 74 219 0.9 5.2 0.00 0.00 0.00 82 1016.2
20260506123832 74 279 0.0 6.1 0.00 0.00 0.00 83 1016.2
20260506123338 73 263 0.9 6.1 0.00 0.00 0.00 83 1016.1
20260506123023 73 70 0.0 6.1 0.00 0.00 0.00 83 1016.4
20260506123008 73 75 0.0 6.1 0.00 0.00 0.00 83 1015.9
20260506122826 73 186 0.9 6.1 0.00 0.00 0.00 83 1016.0
20260506122333 73 76 0.0 4.3 0.00 0.00 0.00 83 1016.1
20260506121823 73 267 0.0 6.1 0.00 0.00 0.00 83 1016.1
20260506121511 72 198 0.9 6.1 0.00 0.00 0.00 83 1016.4
20260506121501 72 257 0.9 6.1 0.00 0.00 0.00 83 1015.9
20260506121344 72 5 0.9 3.5 0.00 0.00 0.00 83 1015.9
20260506120830 72 269 0.9 5.2 0.00 0.00 0.00 83 1015.8
20260506120321 72 152 0.9 5.2 0.00 0.00 0.00 83 1015.8
20260506120032 71 271 0.0 4.3 0.00 0.00 0.00 84 1015.7
20260506120025 71 132 0.0 4.3 0.00 0.00 0.00 83 1016.2
20260506115828 72 53 0.9 4.3 0.00 0.00 0.00 84 1015.8
20260506115332 72 270 0.0 4.3 0.00 0.00 0.00 84 1015.7
20260506114820 71 344 0.0 5.2 0.00 0.00 0.00 84 1015.6
20260506114536 71 42 0.0 5.2 0.00 0.00 0.00 84 1015.6
20260506114519 71 218 0.0 5.2 0.00 0.00 0.00 83 1016.0
20260506114348 71 232 0.0 3.5 0.00 0.00 0.00 84 1015.6
20260506113833 71 342 0.0 5.2 0.00 0.00 0.00 84 1015.6
20260506113320 71 279 0.0 6.1 0.00 0.00 0.00 84 1015.6
20260506113024 70 304 0.9 6.1 0.00 0.00 0.00 84 1015.4
20260506113019 70 170 0.9 7.0 0.00 0.00 0.00 84 1015.8
20260506112827 71 254 0.9 6.1 0.00 0.00 0.00 84 1015.4
20260506112334 71 202 0.9 4.3 0.00 0.00 0.00 84 1015.5
20260506111821 71 219 0.0 4.3 0.00 0.00 0.00 84 1015.5
20260506111535 70 265 0.0 3.5 0.00 0.00 0.00 84 1015.5
20260506111524 70 57 0.0 3.5 0.00 0.00 0.00 84 1015.8
20260506111329 71 37 0.9 3.5 0.00 0.00 0.00 84 1015.5
20260506110837 71 11 0.0 2.6 0.00 0.00 0.00 84 1015.5
20260506110322 71 247 0.0 5.2 0.00 0.00 0.00 84 1015.4
20260506110022 70 242 0.0 5.2 0.00 0.00 0.00 84 1015.4
20260506110003 70 244 0.0 5.2 0.00 0.00 0.00 83 1015.8
20260506105823 71 194 0.9 5.2 0.00 0.00 0.00 84 1015.5
20260506105330 71 240 0.0 2.6 0.00 0.00 0.00 83 1015.4
20260506104856 71 288 0.0 2.6 0.00 0.00 0.00 83 1015.4
20260506104600 70 289 0.0 2.6 0.00 0.00 0.00 83 1015.4
20260506104502 70 293 0.0 2.6 0.00 0.00 0.00 83 1015.7
20260506104342 71 290 0.0 0.0 0.00 0.00 0.00 83 1015.5
20260506103829 71 309 0.0 1.7 0.00 0.00 0.00 83 1015.6
20260506103336 71 270 0.0 2.6 0.00 0.00 0.00 83 1015.5
20260506103042 70 330 0.0 2.6 0.00 0.00 0.00 83 1015.4
20260506103010 70 336 0.0 2.6 0.00 0.00 0.00 82 1015.7
20260506102825 71 330 0.0 2.6 0.00 0.00 0.00 83 1015.3
20260506102357 71 282 0.0 1.7 0.00 0.00 0.00 83 1015.2
20260506101902 71 247 0.0 3.5 0.00 0.00 0.00 83 1015.2
20260506101550 70 247 0.0 3.5 0.00 0.00 0.00 82 1015.1
20260506101505 70 248 0.0 3.5 0.00 0.00 0.00 82 1015.4
20260506101324 71 246 0.0 3.5 0.00 0.00 0.00 82 1015.2
20260506100829 71 263 0.0 3.5 0.00 0.00 0.00 82 1015.3
20260506100336 71 272 0.0 0.9 0.00 0.00 0.00 82 1015.3
20260506100005 70 84 0.0 2.6 0.00 0.00 0.00 82 1015.7
20260506095825 71 88 0.0 2.6 0.00 0.00 0.00 82 1015.3
20260506095332 71 213 0.0 2.6 0.00 0.00 0.00 82 1015.3
20260506094839 71 276 0.0 3.5 0.00 0.00 0.00 82 1015.1
20260506094507 70 207 0.0 3.5 0.00 0.00 0.00 82 1015.1
20260506094503 70 207 0.0 3.5 0.00 0.00 0.00 81 1015.4
20260506094347 71 277 0.0 3.5 0.00 0.00 0.00 82 1015.1
20260506093853 71 321 0.0 4.3 0.00 0.00 0.00 81 1015.2
20260506093336 71 60 0.0 4.3 0.00 0.00 0.00 81 1015.1
20260506093018 71 267 0.0 4.3 0.00 0.00 0.00 81 1015.1
20260506093003 70 264 0.0 4.3 0.00 0.00 0.00 81 1015.4
20260506092824 71 240 0.9 4.3 0.00 0.00 0.00 81 1015.1
20260506092350 71 296 0.0 2.6 0.00 0.00 0.00 81 1015.2
20260506091837 71 306 0.0 2.6 0.00 0.00 0.00 81 1015.3
20260506091508 71 250 0.0 4.3 0.00 0.00 0.00 81 1015.2
20260506091504 71 252 0.0 4.3 0.00 0.00 0.00 80 1015.5
20260506091345 71 260 0.0 4.3 0.00 0.00 0.00 81 1015.2
20260506090852 71 244 0.9 4.3 0.00 0.00 0.00 81 1015.2
20260506090338 71 254 0.0 1.7 0.00 0.00 0.00 81 1015.2
20260506090031 71 67 0.0 2.6 0.00 0.00 0.00 80 1015.0
20260506090004 71 63 0.0 2.6 0.00 0.00 0.00 80 1015.2
20260506085827 71 67 0.0 2.6 0.00 0.00 0.00 80 1015.0
20260506085333 71 238 0.0 6.1 0.00 0.00 0.00 80 1014.9
20260506084820 71 221 0.0 8.7 0.00 0.00 0.00 80 1015.0
20260506084548 71 22 0.0 8.7 0.00 0.00 0.00 80 1014.9
20260506084503 71 225 0.0 8.7 0.00 0.00 0.00 79 1015.3
20260506084328 71 280 0.0 8.7 0.00 0.00 0.00 80 1015.0
20260506083832 71 260 0.9 3.5 0.00 0.00 0.00 80 1015.1
20260506083335 71 63 0.9 2.6 0.00 0.00 0.00 80 1015.2
20260506083028 71 245 0.0 4.3 0.00 0.00 0.00 80 1015.1
20260506083003 71 249 0.0 4.3 0.00 0.00 0.00 79 1015.4
20260506082839 71 188 0.0 4.3 0.00 0.00 0.00 80 1015.0
20260506082341 71 249 0.9 4.3 0.00 0.00 0.00 79 1015.1
20260506081824 71 323 0.0 8.7 0.00 0.00 0.00 79 1015.1
20260506081550 71 236 0.9 8.7 0.00 0.00 0.00 79 1015.0
20260506081503 71 272 0.0 8.7 0.00 0.00 0.00 79 1015.3
20260506081328 71 79 1.7 8.7 0.00 0.00 0.00 79 1015.1
20260506080832 71 264 0.9 4.3 0.00 0.00 0.00 79 1015.0
20260506080335 71 275 0.0 5.2 0.00 0.00 0.00 79 1014.9
20260506073357 71 248 1.7 7.8 0.00 0.00 0.00 79 1015.1
20260506073036 71 264 0.9 7.8 0.00 0.00 0.00 79 1015.0
20260506073003 71 266 0.9 7.8 0.00 0.00 0.00 78 1015.4
20260506072837 71 256 0.9 7.8 0.00 0.00 0.00 79 1015.1
20260506072359 71 287 0.9 7.0 0.00 0.00 0.00 79 1015.2
20260506071822 71 246 0.9 7.8 0.00 0.00 0.00 79 1015.2
20260506071600 71 103 0.0 7.8 0.00 0.00 0.00 79 1015.1
20260506071505 71 264 0.0 7.8 0.00 0.00 0.00 78 1015.4
20260506071326 71 282 0.0 7.8 0.00 0.00 0.00 79 1015.1
20260506070830 71 241 0.0 3.5 0.00 0.00 0.00 79 1015.0
20260506070352 71 12 0.0 5.2 0.00 0.00 0.00 78 1014.9
20260506062337 71 164 1.7 8.7 0.00 0.00 0.00 76 1015.5
20260506061820 71 239 0.9 8.7 0.00 0.00 0.00 76 1015.6
20260506061532 71 233 0.9 7.0 0.00 0.00 0.00 76 1015.7
20260506061504 71 23 0.9 7.0 0.00 0.00 0.00 75 1016.0
20260506061324 71 165 0.0 7.0 0.00 0.00 0.00 76 1015.8
20260506060848 71 48 0.9 6.1 0.00 0.00 0.00 75 1015.8
20260506060331 71 336 0.9 6.1 0.00 0.00 0.00 75 1015.8
20260506051325 71 234 0.0 5.2 0.00 0.00 0.00 73 1015.9
20260506050829 71 250 0.0 3.5 0.00 0.00 0.00 73 1016.0
20260506050332 71 203 0.9 5.2 0.00 0.00 0.00 73 1016.0
20260506044822 71 241 0.9 5.2 0.00 0.00 0.00 72 1016.0
20260506044553 70 29 0.9 5.2 0.00 0.00 0.00 72 1016.0
20260506044504 70 245 0.0 5.2 0.00 0.00 0.00 72 1016.3
20260506044324 71 205 0.9 4.3 0.00 0.00 0.00 72 1016.0
20260506043829 71 47 0.9 3.5 0.00 0.00 0.00 72 1016.0
20260506043333 71 244 0.9 3.5 0.00 0.00 0.00 72 1016.0
20260506043035 70 15 0.0 5.2 0.00 0.00 0.00 72 1016.1
20260506043004 70 218 0.0 5.2 0.00 0.00 0.00 71 1016.3
20260506042838 71 185 0.0 5.2 0.00 0.00 0.00 71 1016.1
20260506042319 71 238 0.9 5.2 0.00 0.00 0.00 71 1016.1
20260506041850 71 311 0.9 5.2 0.00 0.00 0.00 71 1016.3
20260506041506 70 227 0.9 5.2 0.00 0.00 0.00 71 1016.5
20260506041503 70 243 0.9 5.2 0.00 0.00 0.00 72 1016.3
20260506041332 71 234 0.9 5.2 0.00 0.00 0.00 71 1016.3
20260506040836 71 175 0.0 6.1 0.00 0.00 0.00 71 1016.3
20260506040340 71 69 0.0 6.1 0.00 0.00 0.00 72 1016.3
20260506040041 71 222 0.9 8.7 0.00 0.00 0.00 71 1016.3
20260506040004 70 44 0.9 8.7 0.00 0.00 0.00 71 1016.6
20260506035837 71 190 1.7 8.7 0.00 0.00 0.00 72 1016.3
20260506035319 71 61 0.9 6.1 0.00 0.00 0.00 72 1016.3
20260506034824 71 244 0.9 6.1 0.00 0.00 0.00 72 1016.3
20260506034529 71 173 0.0 7.8 0.00 0.00 0.00 72 1016.2
20260506034506 71 43 0.0 7.8 0.00 0.00 0.00 71 1016.5
20260506034327 71 265 0.9 7.8 0.00 0.00 0.00 72 1016.3
20260506033827 71 221 2.6 7.8 0.00 0.00 0.00 71 1016.3
20260506033328 71 231 0.9 5.2 0.00 0.00 0.00 71 1016.3
20260506033006 71 116 0.9 5.2 0.00 0.00 0.00 71 1016.4
20260506032830 71 69 0.9 6.1 0.00 0.00 0.00 71 1016.4
20260506032335 71 110 0.9 6.1 0.00 0.00 0.00 70 1016.4
20260506031839 71 50 0.9 7.0 0.00 0.00 0.00 71 1016.3
20260506031837 70 117 0.0 5.2 0.00 0.00 0.00 70 1016.6
20260506031552 70 265 0.9 5.2 0.00 0.00 0.00 70 1016.4
20260506031322 71 248 0.0 5.2 0.00 0.00 0.00 71 1016.3
20260506030825 71 248 0.0 5.2 0.00 0.00 0.00 71 1016.4
20260506030329 71 269 0.9 6.1 0.00 0.00 0.00 71 1016.4
20260506030033 70 65 0.9 6.1 0.00 0.00 0.00 71 1016.3
20260506025833 71 266 1.7 6.1 0.00 0.00 0.00 71 1016.3
20260506025335 71 293 0.9 6.1 0.00 0.00 0.00 71 1016.2
20260506024839 71 44 0.0 5.2 0.00 0.00 0.00 72 1016.2
20260506024659 70 236 0.9 5.2 0.00 0.00 0.00 71 1016.4
20260506024523 70 221 0.9 5.2 0.00 0.00 0.00 71 1016.3
20260506024342 71 236 0.9 3.5 0.00 0.00 0.00 72 1016.3
20260506023824 71 234 0.9 5.2 0.00 0.00 0.00 72 1016.3
20260506023346 71 267 0.0 8.7 0.00 0.00 0.00 73 1016.3
20260506023029 71 203 1.7 8.7 0.00 0.00 0.00 72 1016.3
20260506023021 71 23 1.7 8.7 0.00 0.00 0.00 73 1016.1
20260506022830 71 236 0.9 7.8 0.00 0.00 0.00 73 1016.1
20260506022353 71 200 0.9 6.1 0.00 0.00 0.00 73 1016.2
20260506021836 71 267 0.9 5.2 0.00 0.00 0.00 72 1016.2
20260506021551 70 276 0.9 5.2 0.00 0.00 0.00 72 1016.1
20260506021509 70 224 0.9 5.2 0.00 0.00 0.00 72 1016.3
20260506021320 71 205 0.9 5.2 0.00 0.00 0.00 72 1016.1
20260506020823 71 233 1.7 5.2 0.00 0.00 0.00 72 1016.2
20260506020327 71 263 0.9 4.3 0.00 0.00 0.00 72 1016.1
20260506020026 71 265 0.0 3.5 0.00 0.00 0.00 73 1016.0
20260506020013 70 268 0.0 3.5 0.00 0.00 0.00 72 1016.3
20260506015832 71 37 0.9 3.5 0.00 0.00 0.00 72 1016.0
20260506015335 71 243 0.9 6.1 0.00 0.00 0.00 72 1016.0
20260506014819 71 246 1.7 6.1 0.00 0.00 0.00 72 1016.0
20260506014514 70 298 0.0 6.1 0.00 0.00 0.00 71 1016.0
20260506014509 70 252 0.9 6.1 0.00 0.00 0.00 71 1016.3
20260506014322 71 57 0.9 6.1 0.00 0.00 0.00 71 1016.2
20260506013826 71 319 0.9 6.1 0.00 0.00 0.00 71 1016.2
20260506013327 71 69 0.0 4.3 0.00 0.00 0.00 71 1016.1
20260506013049 70 199 0.0 2.6 0.00 0.00 0.00 71 1016.2
20260506013007 70 77 0.0 2.6 0.00 0.00 0.00 70 1016.4
20260506012849 71 242 0.0 2.6 0.00 0.00 0.00 71 1016.2
20260506012331 71 321 0.9 4.3 0.00 0.00 0.00 70 1016.2
20260506011835 71 292 0.9 4.3 0.00 0.00 0.00 70 1016.3
20260506011531 70 242 0.0 3.5 0.00 0.00 0.00 70 1016.2
20260506011524 70 244 0.0 3.5 0.00 0.00 0.00 69 1016.4
20260506011337 71 40 0.0 3.5 0.00 0.00 0.00 70 1016.2
20260506010831 71 234 0.9 3.5 0.00 0.00 0.00 70 1016.1
20260506010335 71 241 0.0 5.2 0.00 0.00 0.00 70 1016.0
20260506010116 71 196 0.0 5.2 0.00 0.00 0.00 70 1016.0
20260506010013 71 190 0.0 5.2 0.00 0.00 0.00 70 1016.2
20260506005820 71 325 0.0 5.2 0.00 0.00 0.00 70 1016.0
20260506005350 71 299 0.0 4.3 0.00 0.00 0.00 71 1015.9
20260506004832 71 18 0.0 5.2 0.00 0.00 0.00 70 1015.6
20260506004534 71 234 0.0 5.2 0.00 0.00 0.00 70 1015.6
20260506004511 71 236 0.0 5.2 0.00 0.00 0.00 70 1016.0
20260506004336 71 188 0.9 5.2 0.00 0.00 0.00 70 1015.6
20260506003821 71 350 0.9 3.5 0.00 0.00 0.00 70 1015.6
20260506003324 71 32 0.0 3.5 0.00 0.00 0.00 71 1015.6
20260506003015 71 8 0.0 3.5 0.00 0.00 0.00 71 1015.9
20260506003012 71 292 0.0 3.5 0.00 0.00 0.00 71 1015.5
20260506002826 71 41 0.0 3.5 0.00 0.00 0.00 71 1015.5
20260506002329 71 49 0.0 2.6 0.00 0.00 0.00 71 1015.6
20260506001832 71 109 0.0 2.6 0.00 0.00 0.00 70 1015.7
20260506001556 71 55 0.0 2.6 0.00 0.00 0.00 70 1015.7
20260506001512 71 49 0.0 2.6 0.00 0.00 0.00 69 1016.1
20260506001333 72 13 0.0 2.6 0.00 0.00 0.00 69 1015.7
20260506000836 72 37 0.0 5.2 0.00 0.00 0.00 69 1015.6
20260506000319 72 338 0.0 5.2 0.00 0.00 0.00 68 1015.7
20260506000051 71 180 0.0 5.2 0.00 0.00 0.00 68 1015.6
20260506000014 71 51 0.0 4.3 0.00 0.00 0.00 68 1016.0
20260505235825 72 238 0.0 4.3 0.00 0.00 0.00 67 1015.7
20260505235327 72 173 0.0 5.2 0.00 0.00 0.00 67 1015.8
20260505234851 72 236 0.9 5.2 0.00 0.00 0.00 67 1015.9
20260505234557 72 198 0.0 4.3 0.00 0.00 0.00 67 1015.8
20260505234515 72 223 0.0 6.1 0.00 0.00 0.00 66 1016.2
20260505234333 72 196 0.0 6.1 0.00 0.00 0.00 67 1015.8
20260505233837 72 252 0.9 6.1 0.00 0.00 0.00 67 1015.8
20260505233321 72 307 0.9 5.2 0.00 0.00 0.00 67 1015.9
20260505233045 72 252 0.9 6.1 0.00 0.00 0.00 67 1015.8
20260505233008 72 48 0.9 6.1 0.00 0.00 0.00 66 1016.2
20260505232853 73 230 0.9 6.1 0.00 0.00 0.00 67 1015.8
20260505232335 73 238 0.9 6.1 0.00 0.00 0.00 67 1015.8
20260505231819 73 67 0.0 3.5 0.00 0.00 0.00 67 1015.7
20260505231532 72 75 0.9 3.5 0.00 0.00 0.00 67 1016.0
20260505231522 72 203 0.9 3.5 0.00 0.00 0.00 67 1015.6
20260505231322 73 210 0.9 3.5 0.00 0.00 0.00 67 1015.6
20260505230826 73 220 0.0 2.6 0.00 0.00 0.00 66 1015.6
20260505230329 73 342 0.0 7.0 0.00 0.00 0.00 66 1015.7
20260505230033 73 86 0.0 7.0 0.00 0.00 0.00 67 1015.6
20260505230023 73 191 0.0 7.0 0.00 0.00 0.00 66 1016.0
20260505225833 73 23 0.9 7.0 0.00 0.00 0.00 66 1015.7
20260505225336 73 57 0.9 7.8 0.00 0.00 0.00 66 1015.8
20260505224821 73 25 0.9 5.2 0.00 0.00 0.00 66 1015.6
20260505224541 73 96 0.0 6.1 0.00 0.00 0.00 66 1015.5
20260505224515 73 58 0.0 6.1 0.00 0.00 0.00 66 1016.0
20260505224325 73 239 0.9 6.1 0.00 0.00 0.00 67 1015.6
20260505223829 73 248 1.7 7.0 0.00 0.00 0.00 66 1015.6
20260505223333 73 230 0.0 7.8 0.00 0.00 0.00 66 1015.7
20260505223049 73 238 0.9 7.8 0.00 0.00 0.00 66 1015.6
20260505223017 73 5 0.9 7.8 0.00 0.00 0.00 65 1016.0
20260505222857 73 319 0.9 7.0 0.00 0.00 0.00 65 1015.7
20260505222338 74 138 0.0 7.0 0.00 0.00 0.00 66 1015.7
20260505221822 74 254 0.9 7.0 0.00 0.00 0.00 66 1015.7
20260505221531 74 184 0.9 5.2 0.00 0.00 0.00 67 1015.7
20260505221510 74 65 0.0 5.2 0.00 0.00 0.00 67 1016.1
20260505221325 74 53 1.7 5.2 0.00 0.00 0.00 68 1015.8
20260505220829 74 19 0.9 7.8 0.00 0.00 0.00 67 1015.7
20260505220330 74 239 1.7 7.8 0.00 0.00 0.00 67 1015.7
20260505220048 74 241 0.0 8.7 0.00 0.00 0.00 66 1015.8
20260505220014 74 207 0.0 8.7 0.00 0.00 0.00 66 1016.2
20260505215855 74 225 0.9 8.7 0.00 0.00 0.00 67 1015.9
20260505215336 74 240 0.9 8.7 0.00 0.00 0.00 67 1016.0
20260505214819 74 243 0.9 7.8 0.00 0.00 0.00 66 1015.9
20260505214525 74 76 0.9 7.8 0.00 0.00 0.00 65 1015.8
20260505214517 74 20 0.9 7.8 0.00 0.00 0.00 64 1016.2
20260505214323 75 238 0.9 7.8 0.00 0.00 0.00 65 1015.8
20260505213826 75 46 0.9 5.2 0.00 0.00 0.00 65 1016.0
20260505213329 75 315 0.9 5.2 0.00 0.00 0.00 64 1015.8
20260505213031 75 32 0.0 7.0 0.00 0.00 0.00 64 1015.7
20260505213022 75 307 0.0 7.8 0.00 0.00 0.00 63 1016.1
20260505212834 75 254 1.7 7.0 0.00 0.00 0.00 64 1015.8
20260505212337 75 188 2.6 7.0 0.00 0.00 0.00 64 1015.9
20260505211821 75 207 0.0 9.6 0.00 0.00 0.00 63 1016.0
20260505211541 75 248 0.9 9.6 0.00 0.00 0.00 63 1015.9
20260505211516 75 283 0.9 9.6 0.00 0.00 0.00 62 1016.4
20260505211325 76 242 1.7 9.6 0.00 0.00 0.00 62 1016.0
20260505210826 76 287 0.9 7.8 0.00 0.00 0.00 62 1016.0
20260505210330 76 219 0.9 7.8 0.00 0.00 0.00 63 1016.1
20260505210052 75 66 0.9 7.0 0.00 0.00 0.00 62 1016.1
20260505210017 75 282 0.9 6.1 0.00 0.00 0.00 61 1016.4
20260505205834 76 360 0.9 7.0 0.00 0.00 0.00 62 1016.2
20260505205337 76 221 0.9 3.5 0.00 0.00 0.00 62 1016.1
20260505204821 77 225 0.9 3.5 0.00 0.00 0.00 60 1015.9
20260505204606 76 164 0.9 6.1 0.00 0.00 0.00 58 1016.0
20260505204518 76 77 0.9 5.2 0.00 0.00 0.00 58 1016.3
20260505204502 76 16 0.9 6.1 0.00 0.00 0.00 59 1016.0
20260505204324 77 215 0.9 6.1 0.00 0.00 0.00 59 1016.0
20260505203827 78 41 0.9 6.1 0.00 0.00 0.00 59 1016.1
20260505203350 78 258 2.6 7.8 0.00 0.00 0.00 56 1016.1
20260505203043 77 198 1.7 7.8 0.00 0.00 0.00 58 1016.1
20260505203004 77 258 1.7 7.8 0.00 0.00 0.00 58 1016.5
20260505202853 78 236 1.7 7.8 0.00 0.00 0.00 59 1016.3
20260505202355 78 86 0.9 6.1 0.00 0.00 0.00 59 1016.3
20260505201857 78 355 0.9 7.0 0.00 0.00 0.00 59 1016.3
20260505201546 77 308 0.9 7.0 0.00 0.00 0.00 59 1016.3
20260505201512 77 67 0.9 6.1 0.00 0.00 0.00 59 1016.7
20260505201322 78 107 1.7 7.0 0.00 0.00 0.00 59 1016.4